Location: Bremen
(53.0796°N, 8.8241°E)
Time: 23:38:51
(UTC+01:00)

ISS - Pass Details

Date: 13 November 2017
Orbit: 402 x 407 km, 51.6° (Epoch: 21 November)

Event Time Altitude Azimuth Distance (km) Brightness Sun altitude
Exits shadow 05:02:33 29° 127° (SE) 779 -2.0 -24.2°
Drops below altitude 10° 05:04:20 10° 114° (ESE) 1,455 -0.2 -24.0°
Sets 05:06:25 0° 110° (ESE) 2,313 1.2 -23.6°
